Showing default

CONTECSAT-1, 59117

Orbit data source: Space-Track

CONTECSAT-1, 59117 is a payload satellite owned by CONTEC (KR) in SSO that was launched on Mon, 04 Mar 2024 UTC via an FALCON 9 launch vehicle from the Air Force Western Test Range (AFWTR). Payload-class satellites include a variety of spacecraft equipped with specific instruments for various scientific and technological missions. These include communications satellites like Starlink; space stations such as the ISS; scientific satellites like the Hubble; Earth observation satellites from companies like Planet Labs, Umbra, and HawkEye 360; GPS; miniature CubeSats for education and research; and military/defense satellites.

Loading next visibility...
Identifier
59117, 2024-043V
Orbit
SSO
Country
Flag of KRKR / SKOR
Related business
Manufacturer
CONTEC
Mission
Operational Commercial Imaging
Bus & Motor
CUBESAT 16U, Unknown motor
Mass
~20 kg wet, ~20 kg dry
Launch date (UTC)
2024-03-04 (3 years ago)
Launch vehicle
FALCON 9
Launch site
Air Force Western Test Range (AFWTR)
Object type
Payload
Rocket body
Debris
Shape & HBR
Box, 0.2 m
Radar Cross Section
0.080 m², Medium (>0.1 m² and < 1m²)

Expand to show TLE details & history
Last TLE update: 6 hours ago

TLE from 6 hours ago
0 CONTECSAT-1
1 59117U 24043V   26265.87294336 -.00000045  00000-0  10997-5 0  9990
2 59117  97.5788  49.7893 0005007 206.1301 153.9691 15.36012063142259
Epoch: 2026-09-22T20:57Z
TLE epoch observation values (Epoch: 2026-09-22T20:57:02.306Z)
Latitude
0.00006°
Longitude
93.79751°
Altitude
464.1 km
Speed
7.633 km/s
True Right ascension
03h 19m 09s
True Declination
0° 00' 00"
Sunlit
Object was in full shadow at epoch
Visualization orbit readout
Latitude
Unknown
Longitude
Unknown
Altitude
Unknown
Speed
Unknown
Apparent Right ascension
Unknown
Apparent Declination
Unknown
Sunlit
N/A
Visualization observer readout
Local Sidereal Time
20:14:31
Azimuth
Unknown
Elevation
Unknown
Doppler factor
Unknown
Orbital elements
Apogee altitude
458.289 km
Perigee altitude
451.447 km
Semi-major axis
6,833.005 km
Eccentricity
0.0005
Inclination
97.5788°
RAAN
49.7893°
Arg. of periapsis
206.1301°
True anomaly
153.99427°
Mean anomaly
153.9691°
Eccentric anomaly
153.98168°
Mean motion
3.8426 °/min
Orbital period
93.69 mins
BSTAR
0.0000010997
Loading maneuver chart data...
Computing Atmospheric mass density...
Loading historical data...
Loading historical data...
Loading historical data...
Loading historical data...
Loading historical data...
Loading historical data...
Loading historical data...

Documentation

Showing up to 5 results
|